Total_Precipitation_Accumulation
2.69 2.82 3.16 2.53 2.04 1.82 1.71 1.77 1.87 1.71 1.65 1.68 1.75 1.78 1.80 1.87 1.95 2.11 2.20 2.21 2.35 2.68 2.99 3.23 3.32 3.40 3.51 3.57 3.38 3.15 3.11 3.28 3.37 3.18 3.01 2.76 2.54 2.66 2.89 3.03 2.91 2.13 2.15
2.21 2.42 2.68 2.23 1.80 1.64 1.63 1.79 1.80 1.72 1.64 1.64 1.64 1.67 1.78 1.90 1.94 2.07 2.14 2.34 2.59 2.84 2.97 3.11 3.11 3.13 3.20 3.12 2.95 2.76 2.84 3.24 3.61 3.40 3.11 2.71 2.65 2.67 2.88 2.92 2.88 2.18 2.14
1.57 1.90 2.01 1.95 1.68 1.57 1.57 1.70 1.64 1.57 1.61 1.72 1.75 1.81 1.91 2.05 2.05 2.04 2.15 2.42 2.70 2.91 3.00 3.00 2.94 2.91 2.87 2.82 2.73 2.56 2.87 3.34 3.63 3.62 3.52 2.50 2.35 2.78 2.94 2.82 2.43 2.05 2.02
1.14 1.42 1.52 1.65 1.57 1.47 1.35 1.45 1.53 1.44 1.47 1.63 1.90 2.10 2.19 2.34 2.32 2.34 2.44 2.59 2.79 2.78 2.87 2.88 2.82 2.69 2.68 2.67 2.59 2.66 2.83 3.27 3.66 3.98 3.38 2.22 1.85 2.47 2.84 2.54 2.24 2.14 2.06
1.04 1.15 1.38 1.34 1.27 1.34 1.32 1.39 1.51 1.54 1.53 1.56 1.83 2.15 2.39 2.59 2.61 2.68 2.80 2.90 2.96 2.77 2.64 2.67 2.70 2.46 2.48 2.51 2.60 2.80 2.92 3.42 3.95 3.76 2.71 2.32 2.22 2.44 2.53 2.53 2.44 2.41 2.25
0.88 0.94 1.07 1.26 1.24 1.28 1.30 1.31 1.32 1.44 1.60 1.73 1.95 2.24 2.46 2.67 2.82 3.00 3.00 3.04 3.00 2.77 2.68 2.64 2.58 2.42 2.48 2.57 2.76 2.83 2.94 3.48 3.55 2.57 2.17 2.09 2.11 2.40 2.38 2.61 2.63 2.59 2.46
0.75 0.89 0.99 1.18 1.26 1.28 1.23 1.25 1.28 1.36 1.63 1.83 1.91 2.01 2.21 2.43 2.78 2.91 2.89 2.89 2.75 2.62 2.55 2.57 2.57 2.44 2.41 2.54 2.85 2.82 2.95 3.23 2.66 1.97 2.06 2.17 1.97 2.06 2.26 2.60 2.68 2.59 2.34
0.79 0.76 0.96 1.14 1.23 1.24 1.18 1.21 1.29 1.47 1.68 1.88 1.87 1.89 2.00 2.24 2.51 2.54 2.53 2.51 2.42 2.47 2.48 2.53 2.54 2.39 2.28 2.56 2.73 2.71 2.83 2.71 2.03 1.75 1.80 1.79 1.75 1.91 2.23 2.48 2.52 2.52 2.30
1.00 0.90 0.96 1.02 1.05 1.13 1.23 1.28 1.46 1.68 1.84 1.88 1.85 1.89 2.04 2.18 2.24 2.17 2.21 2.25 2.26 2.30 2.36 2.38 2.30 2.21 2.21 2.41 2.47 2.48 2.68 2.70 2.10 1.91 1.61 1.70 1.98 2.10 2.34 2.48 2.44 2.42 2.35
1.30 1.19 1.09 1.10 1.12 1.07 1.18 1.41 1.61 1.81 1.96 2.02 2.02 2.11 2.25 2.32 2.23 2.28 2.20 2.23 2.29 2.41 2.49 2.57 2.48 2.35 2.31 2.34 2.24 2.37 2.66 2.38 1.91 1.77 1.71 1.64 2.01 2.21 2.40 2.46 2.46 2.37 2.32
1.79 1.52 1.36 1.21 1.23 1.34 1.30 1.39 1.77 1.98 2.10 2.15 2.39 2.61 2.73 2.67 2.46 2.61 2.44 2.64 2.66 2.72 2.79 2.95 2.88 2.63 2.48 2.38 2.45 2.71 2.45 2.00 2.04 2.00 1.92 1.90 2.06 2.29 2.56 2.50 2.43 2.42 2.35
2.06 1.66 1.54 1.35 1.30 1.38 1.50 1.84 2.14 2.04 2.19 2.45 2.77 2.95 3.16 3.08 3.01 2.60 2.86 3.20 3.41 3.66 3.61 3.57 3.43 3.07 2.55 2.36 2.87 3.11 2.15 1.90 2.02 2.10 2.06 2.09 2.28 2.55 2.72 2.53 2.39 2.36 2.30
1.91 1.71 1.67 1.69 1.76 1.64 1.77 2.01 2.26 2.31 2.49 2.64 2.76 2.96 3.17 2.91 2.84 2.93 3.23 3.57 3.80 3.95 3.83 3.85 3.85 3.32 2.91 2.80 3.02 2.97 2.28 2.12 2.10 2.06 2.27 2.40 2.50 2.75 3.04 2.80 2.59 2.52 2.41
2.41 2.19 2.08 2.13 2.14 2.10 2.05 2.19 2.29 2.32 2.43 2.59 2.78 2.78 2.93 3.12 3.20 3.33 3.70 3.66 3.79 3.91 4.25 3.95 4.08 3.76 3.33 3.05 3.04 2.89 2.48 2.40 2.41 2.48 2.78 2.59 2.52 2.88 3.27 3.18 2.93 2.70 2.51
2.99 3.02 2.78 2.51 2.38 2.43 2.60 2.56 2.39 2.51 2.63 2.74 2.95 2.92 2.92 3.24 3.42 3.53 3.64 3.81 3.52 3.55 3.97 4.15 3.92 4.04 4.00 3.70 3.40 3.08 2.95 2.76 2.68 2.71 2.84 2.86 2.76 2.87 3.18 3.33 3.15 3.01 2.79
3.15 3.29 3.04 2.86 2.75 2.82 3.11 3.18 3.00 2.82 3.06 3.07 3.05 3.00 3.08 3.35 3.73 3.91 3.83 3.94 3.71 3.47 3.66 3.89 3.89 4.54 4.38 4.21 3.72 3.35 3.24 3.15 2.94 2.88 2.96 3.17 2.96 2.73 2.87 3.31 3.44 3.33 3.19
3.44 3.35 3.30 3.28 3.21 3.37 3.53 3.45 3.22 3.15 3.06 3.12 3.18 3.25 3.27 3.29 3.70 3.92 4.11 4.07 3.81 3.56 3.76 3.92 4.14 4.45 4.24 4.07 3.81 3.60 3.44 3.34 3.09 2.97 3.20 3.44 3.15 2.96 2.89 3.06 3.37 3.57 3.66
3.75 3.73 3.74 3.56 3.66 3.86 3.96 3.83 3.65 3.52 3.36 3.14 3.08 3.29 3.38 3.50 3.73 3.94 3.87 3.77 3.85 3.75 3.97 4.27 4.40 4.49 4.41 4.22 3.98 3.62 3.40 3.44 3.00 2.91 2.99 3.08 3.15 2.89 3.07 3.32 3.52 3.58 3.81
4.23 4.40 4.45 4.38 4.28 4.27 4.27 4.18 4.22 4.19 3.97 3.61 3.46 3.51 3.60 3.52 3.53 3.75 3.73 3.83 3.89 3.89 3.94 3.63 4.22 4.28 4.41 4.28 3.65 3.44 3.13 3.16 3.07 2.75 2.75 2.59 2.71 2.77 2.80 2.92 3.21 3.33 3.82
4.49 5.02 5.03 4.90 4.93 4.99 4.96 4.67 4.68 4.45 4.17 4.02 3.95 4.07 3.83 3.61 3.47 3.70 3.70 3.83 3.85 3.95 3.99 3.94 4.25 4.23 4.09 4.07 3.31 3.18 3.05 2.80 2.73 2.68 2.47 2.43 2.52 2.39 2.49 2.72 3.06 2.84 3.32
4.76 5.26 5.53 5.61 5.55 5.32 5.01 4.66 4.46 4.42 4.37 4.16 3.94 3.75 3.62 3.50 3.55 3.91 3.80 4.14 4.04 3.84 3.80 3.89 4.18 4.11 3.83 3.89 3.90 3.41 2.80 2.47 2.51 2.40 2.47 2.56 2.39 2.43 2.68 3.04 3.15 2.95 2.73
4.37 4.84 5.03 4.85 4.85 4.72 4.50 4.44 4.41 4.63 4.34 4.08 3.91 3.75 3.44 3.40 3.49 3.51 3.90 3.84 3.89 4.04 3.94 3.90 4.12 3.95 3.54 3.71 4.02 4.00 3.28 3.05 2.57 2.07 2.32 2.45 2.52 2.76 2.83 2.85 3.16 3.27 2.96
3.33 3.62 3.84 4.04 4.06 3.98 3.98 3.96 4.05 4.30 4.13 3.99 3.84 3.73 3.34 3.17 3.16 3.32 3.47 3.65 3.99 3.88 3.90 3.95 3.87 3.80 3.55 3.53 3.72 4.07 3.65 3.20 2.69 2.15 2.06 2.33 2.68 2.88 2.81 2.88 2.96 3.13 3.20
2.97 3.18 3.28 3.37 3.52 3.58 3.68 3.60 3.48 3.41 3.41 3.41 3.46 3.41 3.39 3.24 3.12 3.16 3.29 3.47 3.64 3.44 3.50 3.18 3.30 3.60 3.75 3.48 3.59 3.54 3.46 3.36 3.26 2.71 2.30 2.29 2.56 2.74 2.90 2.82 2.91 3.06 3.31
2.38 2.63 2.79 2.92 3.05 3.27 3.37 3.31 3.29 3.11 3.11 3.21 3.25 3.27 3.25 3.21 3.13 3.08 3.10 3.19 3.21 3.05 3.11 3.04 3.26 3.27 3.28 3.29 3.40 3.48 3.58 3.53 3.33 3.17 2.81 2.69 2.60 2.36 2.43 2.58 2.78 2.93 3.16
2.12 2.31 2.43 2.57 2.63 2.83 2.98 3.08 3.17 3.13 3.05 3.04 3.05 3.06 3.06 3.08 2.97 2.88 2.82 2.87 2.89 2.87 2.92 2.96 3.10 3.00 3.05 3.21 3.27 3.31 3.49 3.50 3.53 3.53 3.01 2.78 2.57 2.10 2.07 2.07 2.29 2.54 2.94